Wetbulb
57.32 54.15 53.31 56.10 57.96 57.85 56.66 54.31 53.50 56.52 58.01 56.24 56.38 56.52 57.54 60.19 62.48 63.22 64.86 66.87 68.05 68.60 70.35 71.49 71.73 72.01 73.19 73.95 74.35 74.37 75.61 75.26 74.95 73.56 73.56 72.57 72.72 73.64 74.90 74.27 76.14 77.12 77.55 78.08
55.46 53.46 56.36 57.89 57.22 56.10 54.56 52.91 53.64 57.02 57.45 56.80 56.53 56.30 58.61 59.54 59.92 62.60 64.38 64.88 67.58 68.76 69.72 71.17 71.52 71.91 71.82 73.61 74.29 75.76 75.76 75.08 75.84 75.07 74.88 75.78 72.59 73.86 74.71 74.53 77.05 77.88 77.32 78.89
53.74 55.82 57.22 55.62 54.68 53.85 53.44 51.81 53.33 54.36 56.07 56.84 56.86 55.88 57.77 59.92 61.06 62.26 62.55 65.63 66.56 68.86 69.05 70.86 71.27 71.86 72.41 72.88 74.61 75.55 76.76 76.58 76.16 76.31 76.03 76.03 75.29 73.49 74.62 73.59 74.45 75.62 77.28 77.66
54.75 56.72 54.75 53.26 52.39 53.15 50.63 56.40 55.53 54.60 53.07 50.52 56.13 49.63 58.20 58.41 59.05 60.79 61.90 63.41 64.66 67.45 70.16 71.20 71.12 71.36 71.85 73.64 74.95 76.82 76.98 77.14 76.73 76.12 75.18 74.76 73.39 71.75 73.15 72.57 74.94 75.89 76.72 77.11
53.50 53.81 53.33 52.03 53.38 55.09 52.62 56.60 55.86 55.19 53.50 53.34 53.99 51.81 56.08 58.67 57.55 59.14 61.85 62.55 64.55 67.17 68.82 70.65 71.26 72.35 72.81 73.48 74.36 75.93 76.82 77.65 77.22 76.76 76.65 74.79 74.23 73.42 74.54 73.93 72.91 74.11 76.17 77.01
54.89 58.11 55.77 55.30 56.62 56.12 56.88 55.07 55.28 55.49 54.14 49.60 53.15 50.78 53.32 55.78 57.39 59.27 61.68 61.93 64.79 66.34 68.18 70.36 72.63 73.34 73.34 74.23 74.70 75.28 76.57 77.17 77.71 77.44 76.62 76.62 74.49 74.26 72.35 74.68 74.72 72.84 74.31 75.39
55.58 55.63 57.03 57.23 54.41 56.97 55.40 52.90 48.97 48.93 49.97 47.81 54.06 51.74 54.69 57.96 59.02 60.48 61.47 62.72 64.33 65.69 67.06 69.05 71.74 72.30 73.18 73.72 74.36 74.93 76.34 76.55 77.56 77.90 77.05 76.54 76.30 75.87 74.41 73.21 73.93 74.41 73.57 73.19
52.63 51.21 56.55 58.22 55.95 54.62 55.16 53.98 49.61 46.42 46.93 49.63 55.30 50.38 53.29 58.57 60.53 61.42 63.11 63.75 64.88 65.78 66.58 68.66 71.06 72.89 73.64 74.14 74.43 74.64 76.06 76.68 77.40 77.48 77.20 77.43 77.79 75.93 75.82 75.08 74.99 72.85 73.59 75.09
53.65 53.12 57.91 57.49 57.46 57.27 55.41 53.18 56.67 52.15 52.16 49.37 52.37 54.40 57.84 58.45 59.11 60.87 62.12 64.94 64.94 65.60 67.12 68.30 71.20 72.63 73.77 73.92 74.97 74.99 76.35 76.90 77.24 77.48 77.64 77.35 77.13 76.14 75.20 75.72 75.03 74.31 74.91 74.94
56.83 52.68 57.70 57.49 58.11 58.17 56.13 57.37 51.61 52.69 47.72 46.53 51.13 52.59 53.30 56.91 58.13 60.49 61.82 62.81 65.45 67.84 68.69 68.70 70.17 71.69 73.07 73.61 74.53 75.67 77.20 76.88 77.21 77.30 77.44 77.54 77.29 77.48 76.70 76.97 75.04 74.32 75.29 75.20
57.34 55.17 55.05 57.85 55.57 54.91 55.26 53.99 55.31 54.85 53.25 48.90 46.78 50.20 59.08 58.77 60.62 61.26 62.83 65.41 66.54 67.87 69.25 70.35 70.25 71.98 73.19 73.89 74.42 75.24 76.20 76.70 76.64 77.01 76.88 76.82 77.12 77.15 77.32 76.76 76.06 75.69 76.68 76.87
57.25 55.33 52.45 53.90 57.22 58.54 57.91 56.19 55.91 51.20 50.25 51.59 51.05 51.55 60.40 57.38 61.92 64.51 64.99 66.38 67.80 68.45 69.52 71.00 72.63 74.17 73.56 74.52 75.18 75.09 75.57 75.40 76.56 76.89 76.82 76.82 77.11 76.99 76.68 76.43 76.56 76.14 75.71 77.17
56.40 53.69 48.75 50.00 53.69 55.85 54.19 55.93 56.27 56.17 54.76 51.87 48.73 50.74 60.74 61.57 62.57 64.66 65.55 66.65 67.92 68.28 68.86 69.87 71.03 72.48 73.80 74.87 74.55 76.52 76.80 75.73 76.44 76.95 76.89 77.05 76.92 76.82 76.29 76.47 76.27 76.07 76.63 76.84
59.39 51.62 49.54 46.34 49.62 52.48 51.07 52.68 54.22 53.74 49.96 49.82 50.03 51.39 57.22 58.23 58.55 62.41 65.39 66.39 67.10 67.59 68.62 68.97 69.75 72.11 73.53 74.73 75.42 76.25 76.79 77.82 78.52 76.52 76.32 76.00 76.45 76.61 76.39 76.81 76.46 76.15 76.24 75.93
53.69 49.58 51.70 51.75 52.17 51.82 50.64 50.13 50.49 49.45 50.01 47.55 49.37 49.62 53.20 60.41 62.02 63.65 65.06 65.68 65.72 65.83 66.49 67.53 68.37 70.88 72.33 73.18 74.35 75.75 76.57 76.68 78.38 79.91 76.73 76.77 77.28 77.32 77.57 77.01 76.90 76.17 75.94 75.89
55.77 51.10 52.24 50.13 51.98 51.67 50.11 51.45 51.06 50.84 50.62 50.11 50.07 50.38 61.06 62.29 62.89 62.48 62.61 63.22 63.26 63.66 64.31 65.53 67.07 68.40 69.99 71.78 72.53 73.26 73.81 76.30 78.27 77.90 77.63 78.53 78.51 77.81 77.02 77.27 76.92 76.64 76.36 75.89
53.29 51.45 50.46 47.34 51.26 51.00 47.96 51.34 52.45 52.96 53.35 52.53 51.00 56.90 59.81 58.99 59.75 60.06 60.65 61.72 61.96 62.26 62.90 63.66 64.55 66.56 68.31 69.48 71.96 71.34 72.79 75.73 76.31 77.58 76.42 76.14 78.99 77.94 76.38 76.67 76.78 76.47 75.96 76.03
52.42 52.33 51.25 48.21 50.62 43.43 51.98 55.57 54.86 52.50 53.16 54.06 54.87 57.28 58.09 58.04 58.89 59.22 60.20 61.68 61.76 62.02 62.49 63.61 63.64 64.93 66.38 67.07 69.27 71.25 72.40 73.36 75.87 75.39 76.21 77.49 77.24 76.66 76.97 75.52 75.67 76.30 76.46 75.79
55.32 52.58 49.14 47.00 46.76 49.87 50.86 54.28 53.74 52.54 52.15 55.66 55.14 56.83 57.33 58.03 57.99 57.26 63.35 61.96 61.31 61.62 62.20 63.57 64.77 65.69 67.98 67.26 68.77 69.88 70.90 72.31 74.36 74.36 71.16 69.94 69.48 67.04 66.89 70.62 73.83 75.11 75.68 75.72
54.56 54.73 49.96 48.37 43.90 41.99 51.61 54.75 55.67 54.21 46.67 56.14 56.23 55.76 56.06 56.83 51.71 54.66 59.48 60.05 60.19 61.37 62.27 63.29 63.65 64.36 64.24 66.60 67.77 67.76 68.79 69.86 71.23 74.18 73.44 69.91 68.67 64.95 64.66 64.61 65.06 71.99 75.13 75.61
51.57 51.87 48.30 48.37 46.39 48.52 54.23 54.77 55.53 45.20 48.03 55.89 56.34 56.50 56.20 54.57 56.13 59.30 60.77 62.03 61.77 62.49 63.47 64.27 64.53 63.70 65.00 66.28 66.05 66.99 67.52 67.89 70.43 71.84 73.22 73.59 72.00 64.54 63.21 61.46 61.82 63.65 73.52 74.81
49.60 48.73 47.51 48.04 45.06 42.99 56.34 55.45 50.20 54.73 56.77 57.02 57.45 57.78 57.38 58.23 59.26 59.93 60.63 61.05 61.77 62.33 63.39 64.10 63.02 63.72 65.13 65.72 66.06 65.72 66.76 68.94 71.13 70.88 70.78 71.11 71.82 71.76 66.68 63.46 64.10 67.77 73.43 73.91
47.74 51.15 48.56 49.09 48.68 56.71 56.73 55.51 57.88 58.15 57.25 57.59 57.60 57.92 58.25 58.10 58.05 59.32 60.03 60.73 61.65 62.18 62.93 62.99 63.08 63.00 64.51 65.19 66.95 65.12 66.94 69.47 69.86 69.79 69.36 69.62 71.14 71.38 72.67 71.74 71.88 71.91 73.99 73.71
53.92 55.90 50.71 51.07 53.57 55.00 56.36 57.66 58.64 58.53 57.04 58.89 58.60 58.47 58.83 57.37 58.22 58.57 59.51 60.93 61.07 61.72 61.68 62.72 61.86 62.82 62.99 64.97 65.58 66.11 67.70 67.90 67.81 67.97 68.17 68.68 68.49 70.13 72.96 74.39 73.98 73.24 72.68 72.89
52.97 54.16 52.40 51.73 54.06 55.33 56.67 57.51 58.10 58.16 58.25 59.06 59.19 58.97 59.10 59.07 58.88 59.57 60.18 61.31 61.86 62.01 61.87 62.75 62.38 62.21 62.71 64.02 64.22 65.39 65.94 66.79 65.90 66.58 66.89 67.29 67.68 68.92 70.90 73.83 72.29 71.95 71.75 62.12
54.46 54.07 50.82 49.41 55.60 56.14 56.11 57.75 58.51 57.77 57.83 58.37 58.47 59.18 59.70 58.93 58.56 59.55 60.23 60.69 60.83 61.40 62.12 61.75 62.33 62.48 62.59 63.59 64.28 65.00 65.83 65.79 65.39 64.91 64.77 65.30 65.76 66.56 73.79 71.26 70.31 54.79 57.15 57.51
MSLP
1001.94 1001.77 1000.71 999.68 999.30 999.43 1000.02 1000.02 999.89 999.73 999.58 1000.03 999.74 999.23 999.03 998.91 999.08 999.53 1000.19 1000.79 1001.76 1002.67 1003.64 1004.71 1005.68 1006.39 1007.25 1008.49 1009.57 1010.26 1011.10 1012.20 1012.90 1013.62 1014.06 1014.18 1014.28 1014.44 1014.49 1013.97 1014.07 1014.54 1014.53 1014.49
1001.30 1000.60 1000.05 999.68 999.50 999.95 1000.16 999.98 999.74 999.30 999.34 999.49 999.17 998.57 998.29 998.07 998.05 998.54 999.31 999.99 1000.57 1001.61 1002.76 1004.01 1005.11 1005.97 1006.81 1008.06 1009.23 1010.11 1010.91 1011.95 1012.73 1013.41 1013.70 1013.87 1013.87 1013.97 1014.04 1013.70 1013.86 1014.28 1014.35 1014.52
1000.25 999.93 999.68 999.96 999.95 999.99 999.89 999.69 999.40 999.20 999.39 998.97 998.41 997.81 997.72 997.82 998.00 998.28 998.55 998.94 999.56 1000.28 1001.54 1003.13 1004.45 1005.28 1006.36 1007.72 1008.78 1009.70 1010.55 1011.39 1012.28 1012.89 1013.15 1013.55 1013.62 1013.86 1013.98 1013.83 1013.89 1014.07 1014.18 1014.73
1000.00 999.76 999.59 999.98 999.91 999.79 999.07 998.69 998.94 999.47 999.64 998.78 998.08 997.57 997.65 997.71 997.80 997.65 997.55 997.90 998.40 999.32 1000.57 1002.07 1003.54 1004.62 1005.59 1006.67 1007.87 1009.01 1010.00 1010.93 1011.82 1012.53 1012.93 1013.18 1013.54 1014.00 1013.86 1013.79 1013.57 1013.74 1013.77 1014.35
999.40 999.51 999.61 999.80 999.43 999.26 999.20 999.05 999.40 999.34 999.34 998.67 997.04 997.16 997.41 997.51 997.20 997.21 997.07 996.97 997.46 998.44 999.69 1001.03 1002.36 1003.68 1004.70 1005.90 1007.10 1008.26 1009.50 1010.51 1011.26 1011.93 1012.50 1012.86 1013.35 1013.70 1013.73 1013.44 1013.59 1013.61 1013.68 1013.64
999.77 999.52 999.42 999.25 999.10 999.48 999.50 999.37 999.13 998.94 998.78 998.25 997.26 996.94 997.13 997.22 997.31 997.30 997.22 997.10 997.29 998.09 999.11 1000.27 1001.42 1002.77 1003.91 1005.19 1006.46 1007.66 1008.86 1009.91 1010.75 1011.33 1011.90 1012.49 1012.90 1013.28 1013.58 1013.53 1013.38 1013.50 1013.53 1013.59
998.90 998.74 998.96 999.28 999.27 999.02 999.36 999.08 998.20 997.97 997.53 998.30 997.43 996.93 996.30 997.09 997.26 997.01 997.27 997.41 997.75 998.30 998.96 1000.04 1000.98 1002.15 1003.32 1004.38 1005.68 1006.90 1008.18 1009.18 1010.07 1010.71 1011.31 1011.92 1012.40 1012.92 1013.14 1013.44 1013.63 1013.66 1013.39 1013.44
997.66 997.92 997.99 998.43 998.82 998.45 998.42 998.36 997.94 997.37 997.46 997.27 997.14 996.66 996.83 996.92 997.15 997.16 997.21 997.58 998.13 998.41 998.71 999.61 1000.73 1001.76 1002.82 1003.81 1004.99 1006.02 1007.32 1008.44 1009.37 1010.10 1010.70 1011.18 1011.68 1012.26 1012.71 1012.96 1013.10 1013.49 1013.53 1013.18
998.44 997.79 998.34 998.60 998.51 998.57 998.06 998.01 997.72 997.52 997.03 996.98 996.95 998.01 997.12 997.37 997.30 997.22 997.64 997.99 998.44 998.76 998.93 998.99 1000.13 1001.27 1002.33 1003.28 1004.30 1005.37 1006.52 1007.76 1008.62 1009.42 1010.10 1010.57 1011.03 1011.48 1011.84 1012.05 1012.66 1013.06 1013.27 1013.17
999.61 999.10 997.99 998.09 998.69 998.57 998.46 998.27 998.23 997.82 997.86 997.77 997.75 998.19 999.02 998.62 998.52 998.77 998.52 998.89 999.49 999.82 999.94 999.94 999.82 1000.36 1001.55 1002.52 1003.55 1004.72 1005.90 1007.10 1007.94 1008.73 1009.41 1009.92 1010.38 1010.84 1011.18 1011.41 1011.88 1012.32 1012.50 1012.71
1000.76 1000.15 999.21 998.21 998.30 997.92 997.84 998.39 998.35 998.25 998.45 998.27 998.18 999.23 999.63 1000.47 1000.00 1000.31 1001.17 1000.52 1001.16 1001.53 1001.57 1001.07 1000.63 1000.42 1000.77 1001.66 1002.75 1003.97 1005.33 1006.41 1007.39 1008.10 1008.61 1009.11 1009.66 1010.15 1010.63 1010.92 1011.24 1011.56 1011.81 1012.08
1001.51 1001.01 1000.08 999.15 998.29 997.90 997.64 997.91 998.32 998.62 999.09 998.98 999.45 1000.00 1000.42 1001.53 1001.76 1001.27 1001.87 1002.23 1002.93 1003.43 1003.17 1002.58 1002.26 1002.04 1001.51 1001.15 1002.27 1003.21 1004.36 1005.39 1006.43 1007.15 1007.92 1008.36 1008.86 1009.36 1009.77 1010.23 1010.39 1010.94 1011.24 1011.50
1003.35 1001.88 1000.90 999.73 998.47 998.39 998.10 998.13 998.47 999.02 998.98 999.54 1000.01 1000.75 1001.30 1001.94 1002.51 1002.69 1003.24 1003.46 1003.71 1004.26 1004.40 1004.21 1003.98 1003.82 1003.62 1003.48 1003.47 1003.02 1003.65 1004.51 1005.30 1006.18 1006.92 1007.47 1008.01 1008.46 1008.75 1009.27 1009.71 1010.10 1010.58 1010.96
1004.64 1003.44 1002.59 1001.47 1000.22 1000.15 999.83 999.60 999.83 1000.05 1000.11 1000.17 1000.29 1000.38 1001.84 1001.59 1001.99 1002.61 1003.86 1005.00 1004.37 1005.45 1005.31 1005.36 1005.60 1005.28 1005.09 1004.92 1004.67 1004.59 1004.41 1004.17 1004.69 1005.32 1005.90 1006.48 1007.02 1007.55 1008.07 1008.45 1009.06 1009.48 1009.93 1010.46
1004.57 1003.69 1003.13 1002.45 1001.96 1001.43 1001.12 1000.91 1000.79 1000.83 1000.98 1001.15 1001.36 1001.52 1001.79 1002.63 1003.24 1004.13 1005.01 1005.77 1006.04 1006.29 1006.24 1006.49 1006.56 1006.52 1006.15 1005.96 1005.79 1005.47 1005.21 1005.05 1004.87 1005.04 1005.44 1005.75 1006.30 1006.75 1007.39 1007.94 1008.32 1008.84 1009.35 1009.68
1004.04 1003.90 1003.83 1003.32 1002.82 1002.13 1001.40 1000.98 1001.05 1001.26 1001.41 1001.63 1001.98 1002.51 1003.55 1004.21 1004.90 1005.60 1006.20 1006.54 1006.75 1007.09 1007.55 1007.52 1007.15 1007.18 1007.00 1006.61 1006.51 1006.49 1006.26 1005.86 1005.42 1005.41 1005.58 1005.60 1005.94 1006.45 1007.04 1007.38 1008.03 1008.45 1008.80 1009.23
1004.49 1004.59 1004.48 1003.80 1003.33 1002.49 1001.88 1001.30 1001.44 1001.54 1001.78 1002.38 1002.98 1004.31 1004.98 1005.67 1006.08 1006.51 1006.71 1007.05 1007.62 1007.95 1008.31 1008.15 1007.78 1007.72 1007.54 1007.20 1006.73 1006.81 1006.64 1006.30 1006.02 1005.67 1005.78 1005.95 1006.03 1006.34 1006.83 1007.11 1007.42 1007.96 1008.37 1008.70
1004.38 1004.85 1005.12 1004.70 1004.17 1003.22 1001.96 1002.18 1002.88 1003.39 1003.54 1004.00 1004.38 1004.67 1005.42 1006.31 1006.82 1007.10 1007.34 1007.54 1008.10 1008.19 1008.35 1008.22 1007.91 1007.90 1007.79 1007.50 1007.19 1007.09 1006.81 1006.43 1006.01 1005.99 1005.82 1005.79 1005.87 1006.22 1006.68 1006.93 1007.10 1007.36 1007.71 1008.02
1004.49 1004.80 1005.12 1005.02 1004.41 1003.65 1002.98 1003.96 1004.31 1004.58 1005.01 1005.35 1005.86 1006.14 1006.62 1006.92 1007.16 1007.47 1007.71 1008.28 1008.11 1008.15 1008.26 1007.93 1007.80 1007.74 1007.66 1007.54 1007.26 1007.10 1006.80 1006.41 1006.06 1005.97 1006.22 1006.32 1006.32 1006.75 1006.62 1007.18 1007.15 1007.07 1007.14 1007.42
1004.99 1005.21 1006.22 1005.95 1005.62 1004.95 1004.96 1005.47 1005.94 1006.07 1006.27 1006.99 1007.43 1007.61 1007.72 1007.73 1007.62 1007.53 1007.93 1007.95 1008.00 1007.97 1007.83 1007.69 1007.63 1007.51 1007.41 1007.33 1007.08 1006.89 1006.68 1006.42 1005.98 1005.78 1006.12 1006.28 1006.23 1006.21 1007.33 1006.85 1006.55 1007.54 1006.45 1006.66
1005.21 1005.88 1006.17 1005.92 1005.81 1005.62 1006.41 1006.90 1006.88 1007.14 1008.02 1007.98 1008.09 1008.33 1008.53 1008.54 1008.43 1008.22 1008.17 1007.98 1008.03 1007.83 1007.56 1007.29 1007.17 1007.19 1007.12 1006.88 1006.66 1006.47 1006.41 1006.33 1006.00 1005.86 1005.75 1005.58 1005.37 1005.50 1005.78 1004.45 1005.34 1007.92 1006.78 1006.20
1005.71 1006.10 1006.13 1006.17 1006.35 1006.78 1007.54 1007.48 1007.76 1008.19 1008.26 1008.46 1008.67 1008.87 1008.87 1008.91 1008.77 1008.56 1008.35 1008.06 1007.95 1007.78 1007.39 1007.06 1006.79 1006.67 1006.65 1006.66 1006.13 1005.94 1005.99 1005.99 1005.83 1005.75 1005.48 1005.45 1005.11 1005.11 1005.72 1006.02 1005.72 1004.73 1004.95 1005.21
1006.69 1006.84 1007.27 1007.66 1007.41 1007.72 1007.63 1007.91 1008.14 1008.73 1009.01 1008.94 1009.27 1009.46 1009.35 1009.14 1008.95 1008.73 1008.42 1008.05 1007.69 1007.63 1007.38 1007.14 1006.92 1006.46 1006.35 1006.37 1006.05 1005.52 1005.45 1005.43 1005.39 1005.47 1005.27 1005.21 1004.90 1004.52 1004.34 1004.00 1003.67 1002.29 1003.70 1004.10
1006.68 1007.01 1007.65 1008.33 1007.87 1008.11 1008.16 1008.17 1008.63 1009.58 1009.60 1009.46 1009.30 1009.35 1009.30 1009.28 1009.23 1008.80 1008.46 1007.87 1007.57 1007.41 1007.16 1006.93 1006.62 1006.21 1006.05 1005.92 1005.74 1005.48 1005.14 1004.89 1004.78 1004.85 1004.82 1004.62 1004.22 1003.83 1003.51 1003.29 1003.10 1003.07 1003.26 1003.42
1007.66 1007.92 1008.05 1008.28 1008.32 1008.44 1008.66 1008.62 1009.09 1009.41 1009.53 1009.15 1009.06 1009.16 1008.95 1008.70 1008.37 1008.29 1007.78 1007.33 1007.05 1007.00 1006.94 1006.70 1006.32 1005.98 1005.66 1005.48 1005.32 1005.12 1004.80 1004.60 1004.05 1003.97 1004.09 1003.92 1003.64 1002.92 1002.38 1002.56 1003.13 1003.27 1003.85 1004.65
1007.69 1007.83 1008.12 1008.10 1008.61 1009.03 1009.21 1009.46 1009.47 1009.25 1008.99 1009.04 1008.76 1008.31 1008.49 1008.48 1008.08 1007.73 1007.01 1006.67 1006.77 1006.65 1006.49 1006.16 1005.79 1005.53 1005.23 1004.86 1004.59 1004.46 1004.27 1004.10 1003.82 1003.41 1003.31 1003.03 1002.71 1002.22 1002.01 1002.53 1003.59 1004.27 1004.09 1004.17
Wind_Speed
14 11 13 16 14 11 8 8 8 9 3 3 9 12 8 7 14 11 9 12 16 17 16 18 14 13 17 15 13 10 11 10 8 5 4 6 7 4 6 8 3 8 5 6
11 12 12 14 9 7 8 9 10 13 2 8 11 15 8 4 6 13 13 10 14 16 19 17 16 16 13 17 16 11 12 13 9 6 6 5 5 5 8 6 4 4 5 4
15 9 7 8 9 8 11 11 12 11 9 17 19 16 9 8 3 5 7 14 13 18 20 19 17 17 15 17 18 14 13 13 10 10 7 4 3 1 5 3 6 7 6 6
10 13 9 4 10 11 14 4 3 5 9 10 12 6 7 7 10 13 14 13 13 15 15 20 20 18 18 15 15 15 14 14 12 9 8 10 4 5 5 4 5 6 8 7
9 6 7 7 12 5 11 5 9 11 10 16 19 14 11 8 6 6 7 2 13 15 16 20 21 19 18 16 15 14 14 13 12 12 11 9 8 6 2 6 8 9 8 7
15 4 5 11 4 5 8 12 14 15 14 11 5 6 7 6 6 2 3 2 9 11 15 13 18 18 15 17 17 16 16 13 13 14 12 8 11 9 6 5 4 7 6 7
17 15 13 7 9 8 7 12 11 7 10 5 3 9 11 12 6 4 6 6 4 9 10 13 14 14 16 17 18 16 18 16 15 14 13 13 11 11 9 8 5 5 6 6
8 11 10 13 9 12 14 12 10 15 2 9 15 4 10 11 9 2 8 10 4 6 12 15 13 12 14 14 19 18 19 17 16 15 14 12 12 8 7 9 6 6 6 7
13 7 7 2 5 13 3 7 11 14 11 9 5 9 7 10 7 11 11 11 8 2 4 13 15 13 14 14 17 18 17 17 16 17 13 13 12 13 11 12 10 6 9 8
13 8 8 11 1 9 12 14 9 8 7 12 3 7 3 10 14 15 13 14 13 13 12 13 7 16 13 16 14 16 16 16 15 15 14 13 13 12 11 8 12 11 9 7
12 12 15 9 8 13 9 11 10 11 11 12 9 7 8 6 10 4 11 15 14 12 11 11 11 7 14 13 14 15 14 15 15 15 15 15 14 14 12 11 12 11 9 8
15 9 11 17 19 16 10 11 10 9 13 14 8 5 16 18 11 16 14 13 13 12 13 13 15 19 6 9 11 13 16 16 17 14 14 15 14 14 14 13 10 13 11 10
12 6 8 10 14 7 10 11 6 13 9 11 11 3 17 13 8 10 9 7 10 10 12 14 14 15 15 16 13 3 12 14 16 15 16 15 15 15 15 15 13 12 12 10
5 10 12 12 18 15 15 15 13 13 11 14 15 18 6 3 9 3 12 10 13 10 11 12 12 11 11 13 12 11 8 7 7 14 15 16 15 16 15 14 14 12 12 12
5 10 12 14 16 17 16 16 15 15 15 16 16 18 17 17 12 12 12 7 12 11 12 11 10 9 9 9 11 11 9 8 5 4 9 12 13 13 12 12 13 13 13 13
7 9 11 13 15 16 18 15 12 14 14 15 14 10 14 15 14 14 11 9 10 11 11 10 10 10 9 8 6 8 10 12 7 6 5 5 9 11 12 12 12 13 12 13
9 9 10 13 14 16 11 11 6 8 6 10 8 10 12 10 10 10 10 4 6 6 8 10 10 9 9 10 7 7 8 8 10 6 5 5 5 7 10 13 12 14 14 13
9 9 8 11 12 12 3 1 3 8 7 8 11 11 9 8 9 12 15 7 5 7 8 9 9 8 8 11 10 11 7 11 6 7 6 5 6 5 8 13 15 13 13 14
8 5 8 9 11 12 14 13 9 6 9 13 11 12 12 13 13 14 5 2 7 6 10 10 9 8 6 10 8 8 10 9 6 7 6 6 5 1 1 9 16 16 13 14
6 5 4 9 11 9 8 10 7 7 7 11 9 9 12 13 10 10 4 14 16 14 13 11 12 11 11 10 8 9 8 11 10 6 7 9 13 9 2 3 9 21 16 16
7 6 9 10 11 9 10 8 6 7 6 8 10 11 13 13 11 15 16 15 16 15 15 13 11 11 12 11 10 9 7 9 10 10 8 8 6 4 5 12 17 26 23 14
6 6 8 8 11 10 8 8 3 7 8 11 12 14 16 17 18 18 17 17 16 18 17 15 14 13 11 15 11 10 9 9 7 8 10 10 7 4 8 13 27 36 18 15
4 5 6 5 9 11 7 4 3 9 8 9 13 16 18 19 19 19 18 19 16 18 16 13 14 15 12 12 13 12 9 8 9 8 10 8 10 7 7 11 17 13 12 11
4 4 3 6 5 12 14 12 10 11 10 20 14 16 17 16 17 19 19 18 17 16 16 15 16 14 15 13 13 14 12 10 10 11 10 9 11 10 10 7 9 9 10 11
8 7 6 10 13 8 9 6 9 9 10 18 17 18 18 20 20 19 18 16 15 15 16 15 15 15 16 16 15 15 14 13 12 11 11 11 9 12 9 6 5 8 1 5
6 4 6 10 12 9 11 13 14 17 17 16 17 18 17 17 18 20 19 14 12 15 15 16 16 17 17 16 15 14 14 11 13 12 9 11 10 9 2 4 3 8 8 10
Wind_Direction
213 234 238 248 240 17 6 306 293 290 73 298 272 285 258 244 192 185 209 187 173 180 178 165 195 189 159 160 172 166 158 148 147 156 187 219 166 168 188 228 190 181 210 208
253 225 251 279 326 343 295 283 264 265 142 298 286 284 255 267 238 181 183 226 188 182 170 167 182 180 195 165 174 175 166 143 159 166 199 206 180 182 187 213 177 221 192 178
247 307 44 305 304 281 253 259 281 312 346 282 255 255 170 156 161 163 230 190 211 185 175 169 176 184 186 167 168 175 170 165 168 180 192 230 144 93 185 197 203 202 207 181
265 256 259 231 256 258 261 319 227 317 268 293 303 285 154 148 190 202 211 192 198 184 180 168 173 188 184 177 167 166 175 167 179 184 207 180 186 173 197 187 203 196 208 222
237 229 239 244 260 247 272 18 298 284 280 266 268 232 134 182 182 34 353 166 171 168 174 174 180 180 187 176 171 169 172 169 180 191 213 174 176 207 257 199 197 219 198 226
273 290 228 242 233 242 279 293 278 246 243 270 243 312 128 139 54 17 27 170 129 152 169 181 176 171 181 172 170 172 172 184 190 187 197 197 184 197 209 240 210 204 186 206
213 222 214 212 252 239 239 257 269 234 271 216 116 277 128 134 133 61 129 101 121 129 166 162 168 171 179 177 170 173 174 183 192 193 195 192 190 196 206 215 211 218 217 200
269 171 195 172 228 268 220 262 291 293 330 219 222 229 114 128 145 113 124 102 104 168 161 161 177 178 177 183 174 177 174 182 190 199 199 196 199 190 206 207 208 213 233 228
318 114 125 245 217 247 299 239 315 314 301 288 38 3 260 110 215 148 108 118 120 81 4 164 165 178 178 187 177 181 172 181 188 196 198 200 201 195 199 202 197 215 218 217
312 294 243 154 246 273 271 305 315 300 305 293 287 129 148 318 27 26 96 91 57 48 23 349 190 174 186 184 190 180 165 181 188 201 200 201 201 203 212 197 192 203 214 220
304 305 298 281 197 250 216 233 262 284 318 313 306 95 73 343 85 140 34 54 45 36 22 356 341 196 173 184 182 173 176 183 193 201 204 202 199 201 204 222 190 204 211 201
330 316 304 303 311 312 286 272 288 294 306 295 311 325 105 99 325 54 48 47 42 27 15 13 9 7 17 170 173 180 179 192 188 199 211 199 197 203 200 212 208 192 208 204
357 300 308 286 252 293 266 271 268 297 271 294 300 37 107 58 29 64 75 32 79 42 26 17 20 16 9 3 6 197 174 189 189 192 200 203 201 201 210 201 212 198 200 206
317 276 269 282 311 335 322 319 317 308 297 303 297 310 109 225 230 115 61 12 72 41 36 28 22 18 16 4 358 353 336 195 193 191 202 204 204 205 207 207 201 202 198 201
244 276 292 308 315 314 304 297 293 282 284 281 293 304 330 45 55 62 49 61 52 33 31 25 28 14 21 9 353 352 333 338 328 239 201 209 202 203 205 212 196 202 196 199
270 292 299 281 284 277 276 279 294 288 284 281 286 294 26 39 31 43 33 28 29 27 11 4 9 12 4 359 352 344 336 331 306 302 311 238 199 201 210 205 208 201 201 201
287 300 302 288 305 305 288 281 316 342 351 3 330 67 45 22 9 10 345 36 36 22 358 347 344 1 351 334 339 345 332 315 319 269 272 291 263 214 217 224 213 203 207 202
277 260 272 279 276 265 286 99 50 340 318 346 339 357 29 38 356 349 330 54 8 352 339 327 330 334 337 328 338 335 326 305 289 323 280 267 227 246 240 234 229 214 205 208
295 284 283 281 272 280 297 48 30 38 338 12 1 353 346 343 339 309 124 355 313 329 303 305 313 319 328 300 323 314 315 306 289 281 265 262 290 337 241 289 255 229 213 211
286 279 243 287 300 292 48 73 30 331 258 28 8 334 329 324 299 301 326 328 327 313 302 306 304 306 305 294 302 289 310 308 300 300 252 256 255 212 252 318 302 286 227 214
214 221 266 268 277 282 53 25 319 256 16 339 340 336 322 306 302 307 307 311 310 307 304 302 294 289 296 285 282 280 280 286 302 317 326 306 262 285 16 339 324 283 247 219
275 278 282 291 282 278 44 309 337 358 326 348 338 338 329 328 318 313 307 300 310 306 309 298 290 288 289 290 280 275 272 281 286 307 304 303 294 237 196 187 241 241 226 218
255 273 308 330 328 331 346 305 317 4 322 332 336 323 317 317 309 306 305 300 299 303 306 312 308 299 293 302 307 271 266 274 285 281 283 285 287 271 259 245 250 244 215 216
195 244 241 310 240 328 316 326 12 6 347 317 318 309 302 298 294 297 301 304 302 290 284 285 287 289 298 281 284 286 285 260 267 272 272 276 279 265 254 239 249 241 233 219
303 333 294 290 272 295 287 329 327 314 281 289 322 303 294 303 301 304 293 292 294 302 298 296 290 285 280 281 279 278 271 287 260 268 276 272 273 273 268 258 285 267 221 79
276 342 303 310 344 353 345 338 316 306 314 308 292 304 297 291 290 289 280 287 290 290 287 284 281 280 278 275 274 275 270 263 272 261 271 273 265 276 188 271 120 24 167 157